| time (UTC) | temp F | wind direction | speed knots | gust knots | rain 1hr in | rain 24hr in | rain mn in | humidity % | barometer mb |
| 20260904104704 | 59 | 66 | 0.0 | 0.0 | 0.00 | 0.03 | 0.00 | 96 | 1009.2 |
| 20260904104204 | 59 | 66 | 0.0 | 0.0 | 0.00 | 0.03 | 0.00 | 96 | 1009.1 |
| 20260904102704 | 59 | 66 | 0.0 | 0.0 | 0.00 | 0.03 | 0.00 | 96 | 1009.0 |
| 20260904102204 | 59 | 66 | 0.0 | 0.9 | 0.00 | 0.03 | 0.00 | 96 | 1009.1 |
| 20260904100704 | 58 | 66 | 0.0 | 0.0 | 0.00 | 0.04 | 0.00 | 96 | 1009.0 |
| 20260904100203 | 58 | 66 | 0.0 | 0.0 | 0.00 | 0.04 | 0.00 | 96 | 1009.0 |
| 20260904094704 | 58 | 66 | 0.0 | 0.0 | 0.00 | 0.04 | 0.00 | 96 | 1008.8 |
| 20260904092703 | 58 | 66 | 0.0 | 0.0 | 0.00 | 0.04 | 0.00 | 96 | 1008.7 |
| 20260904090704 | 58 | 66 | 0.0 | 0.9 | 0.00 | 0.04 | 0.00 | 96 | 1008.5 |
| 20260904084703 | 58 | 66 | 0.0 | 0.0 | 0.00 | 0.04 | 0.00 | 96 | 1008.6 |
| 20260904084203 | 58 | 66 | 0.0 | 0.0 | 0.00 | 0.04 | 0.00 | 96 | 1008.6 |
| 20260904082703 | 59 | 66 | 0.0 | 0.0 | 0.00 | 0.04 | 0.00 | 96 | 1008.6 |
| 20260904082203 | 59 | 66 | 0.0 | 0.9 | 0.00 | 0.05 | 0.00 | 96 | 1008.7 |
| 20260904080704 | 59 | 66 | 0.0 | 0.0 | 0.00 | 0.06 | 0.00 | 96 | 1008.7 |
| 20260904080203 | 59 | 66 | 0.9 | 1.7 | 0.00 | 0.06 | 0.00 | 96 | 1008.7 |
| 20260904074706 | 59 | 66 | 0.0 | 0.9 | 0.00 | 0.06 | 0.00 | 96 | 1008.5 |
| 20260904074206 | 59 | 66 | 0.9 | 1.7 | 0.00 | 0.06 | 0.00 | 96 | 1008.5 |
| 20260904072205 | 59 | 64 | 0.0 | 0.9 | 0.00 | 0.06 | 0.00 | 95 | 1008.4 |
| 20260904070705 | 60 | 64 | 0.0 | 0.0 | 0.00 | 0.06 | 0.00 | 96 | 1008.4 |
| 20260904062705 | 61 | 64 | 0.0 | 1.7 | 0.00 | 0.06 | 0.00 | 95 | 1008.5 |
| 20260904062206 | 61 | 64 | 0.9 | 1.7 | 0.00 | 0.06 | 0.00 | 96 | 1008.5 |
| 20260904060705 | 61 | 63 | 0.0 | 0.0 | 0.00 | 0.06 | 0.00 | 95 | 1008.7 |
| 20260904060205 | 61 | 63 | 0.0 | 0.9 | 0.00 | 0.06 | 0.00 | 95 | 1008.7 |
| 20260904054205 | 61 | 63 | 0.0 | 0.9 | 0.00 | 0.06 | 0.00 | 95 | 1008.8 |
| 20260904052205 | 61 | 63 | 0.9 | 0.9 | 0.00 | 0.06 | 0.00 | 95 | 1008.9 |
| 20260904050205 | 61 | 63 | 0.0 | 0.9 | 0.00 | 0.08 | 0.00 | 95 | 1009.0 |
| 20260904044705 | 61 | 63 | 0.0 | 0.9 | 0.00 | 0.09 | 0.00 | 95 | 1009.1 |
| 20260904042705 | 61 | 63 | 0.0 | 1.7 | 0.00 | 0.10 | 0.00 | 95 | 1009.1 |
| 20260904042205 | 61 | 63 | 0.9 | 2.6 | 0.00 | 0.10 | 0.00 | 95 | 1009.1 |
| 20260904040205 | 61 | 55 | 0.0 | 1.7 | 0.00 | 0.11 | 0.00 | 95 | 1009.4 |
| 20260904034205 | 62 | 55 | 0.0 | 1.7 | 0.00 | 0.11 | 0.11 | 94 | 1009.4 |
| 20260904032705 | 62 | 55 | 0.9 | 1.7 | 0.00 | 0.13 | 0.11 | 94 | 1009.4 |
| 20260904032205 | 62 | 55 | 0.9 | 0.9 | 0.00 | 0.13 | 0.11 | 94 | 1009.3 |
| 20260904030705 | 62 | 55 | 0.0 | 0.0 | 0.00 | 0.15 | 0.11 | 94 | 1009.3 |
| 20260904030205 | 63 | 55 | 0.0 | 1.7 | 0.00 | 0.16 | 0.11 | 94 | 1009.3 |
| 20260904024705 | 63 | 55 | 0.0 | 0.9 | 0.00 | 0.17 | 0.11 | 94 | 1009.3 |
| 20260904024205 | 63 | 55 | 0.0 | 0.9 | 0.00 | 0.18 | 0.11 | 93 | 1009.4 |
| 20260904022705 | 64 | 55 | 0.9 | 0.9 | 0.00 | 0.19 | 0.11 | 93 | 1009.5 |
| 20260904020705 | 64 | 55 | 0.9 | 1.7 | 0.00 | 0.20 | 0.11 | 93 | 1009.5 |
| 20260904014205 | 65 | 28 | 0.9 | 4.3 | 0.00 | 0.22 | 0.11 | 94 | 1009.6 |
| 20260904012705 | 65 | 47 | 1.7 | 2.6 | 0.00 | 0.23 | 0.11 | 94 | 1009.5 |
| 20260904012205 | 65 | 30 | 1.7 | 2.6 | 0.00 | 0.23 | 0.11 | 95 | 1009.4 |
| 20260904010705 | 66 | 47 | 0.0 | 0.0 | 0.00 | 0.23 | 0.11 | 94 | 1008.8 |
| 20260904010205 | 66 | 47 | 0.0 | 1.7 | 0.00 | 0.23 | 0.11 | 94 | 1008.7 |
| 20260904004705 | 66 | 47 | 0.9 | 0.9 | 0.01 | 0.23 | 0.11 | 94 | 1008.7 |
| 20260904004207 | 66 | 47 | 0.0 | 2.6 | 0.01 | 0.23 | 0.11 | 94 | 1008.7 |
| 20260904002705 | 66 | 45 | 1.7 | 2.6 | 0.01 | 0.24 | 0.11 | 94 | 1008.6 |
| 20260904002205 | 66 | 37 | 2.6 | 2.6 | 0.01 | 0.24 | 0.11 | 94 | 1008.7 |
| 20260904000705 | 66 | 319 | 0.0 | 0.0 | 0.01 | 0.24 | 0.11 | 93 | 1008.3 |
| 20260904000205 | 66 | 319 | 0.0 | 0.9 | 0.01 | 0.24 | 0.11 | 93 | 1008.3 |
| 20260903234705 | 67 | 319 | 0.0 | 0.9 | 0.00 | 0.23 | 0.10 | 92 | 1008.1 |
| 20260903234205 | 67 | 319 | 0.0 | 0.9 | 0.00 | 0.23 | 0.10 | 92 | 1008.2 |
| 20260903232705 | 68 | 319 | 0.0 | 0.0 | 0.00 | 0.23 | 0.10 | 91 | 1008.0 |
| 20260903232205 | 68 | 319 | 0.0 | 0.9 | 0.01 | 0.23 | 0.10 | 91 | 1008.0 |
| 20260903230704 | 68 | 319 | 0.9 | 0.9 | 0.02 | 0.23 | 0.10 | 90 | 1008.2 |
| 20260903230204 | 69 | 319 | 0.0 | 0.9 | 0.02 | 0.23 | 0.10 | 90 | 1008.3 |
| 20260903224204 | 69 | 319 | 0.0 | 2.6 | 0.02 | 0.23 | 0.10 | 88 | 1008.5 |
| 20260903222205 | 70 | 339 | 1.7 | 11.3 | 0.02 | 0.22 | 0.09 | 85 | 1008.6 |
| 20260903220705 | 73 | 191 | 0.9 | 2.6 | 0.00 | 0.20 | 0.08 | 81 | 1008.2 |
| 20260903220204 | 74 | 170 | 1.7 | 2.6 | 0.00 | 0.20 | 0.08 | 82 | 1008.2 |
| 20260903214705 | 74 | 288 | 0.9 | 2.6 | 0.00 | 0.20 | 0.08 | 82 | 1008.0 |
| 20260903212705 | 75 | 258 | 1.7 | 2.6 | 0.00 | 0.20 | 0.08 | 76 | 1008.0 |
| 20260903212204 | 75 | 255 | 1.7 | 2.6 | 0.00 | 0.20 | 0.08 | 75 | 1008.0 |
| 20260903210205 | 76 | 250 | 0.9 | 4.3 | 0.00 | 0.20 | 0.08 | 75 | 1007.9 |
| 20260903204705 | 77 | 233 | 1.7 | 4.3 | 0.00 | 0.20 | 0.08 | 70 | 1008.0 |
| 20260903204205 | 78 | 170 | 0.9 | 6.1 | 0.00 | 0.20 | 0.08 | 70 | 1008.2 |
| 20260903200705 | 78 | 267 | 2.6 | 6.1 | 0.00 | 0.20 | 0.08 | 69 | 1008.2 |
| 20260903194204 | 78 | 271 | 2.6 | 6.1 | 0.00 | 0.20 | 0.08 | 71 | 1008.3 |
| 20260903192705 | 78 | 252 | 4.3 | 8.7 | 0.00 | 0.20 | 0.08 | 70 | 1008.4 |
| 20260903192204 | 78 | 255 | 3.5 | 6.1 | 0.00 | 0.20 | 0.08 | 71 | 1008.4 |
| 20260903190705 | 78 | 255 | 2.6 | 7.0 | 0.00 | 0.20 | 0.08 | 70 | 1008.4 |
| 20260903190205 | 78 | 167 | 0.9 | 6.1 | 0.00 | 0.20 | 0.08 | 73 | 1008.4 |
| 20260903184704 | 78 | 183 | 1.7 | 2.6 | 0.00 | 0.20 | 0.08 | 70 | 1008.6 |
| 20260903184205 | 79 | 195 | 1.7 | 6.1 | 0.00 | 0.20 | 0.08 | 70 | 1008.6 |
| 20260903182704 | 78 | 174 | 1.7 | 5.2 | 0.00 | 0.20 | 0.08 | 69 | 1008.6 |
| 20260903182206 | 78 | 244 | 0.9 | 5.2 | 0.00 | 0.20 | 0.08 | 70 | 1008.5 |
| 20260903180704 | 77 | 232 | 0.9 | 2.6 | 0.00 | 0.20 | 0.08 | 72 | 1008.8 |
| 20260903180205 | 77 | 238 | 0.9 | 5.2 | 0.00 | 0.20 | 0.08 | 72 | 1008.8 |
| 20260903174704 | 77 | 258 | 1.7 | 4.3 | 0.00 | 0.20 | 0.08 | 73 | 1008.9 |
| 20260903172705 | 75 | 211 | 0.9 | 2.6 | 0.00 | 0.20 | 0.08 | 76 | 1009.1 |
| 20260903172205 | 75 | 225 | 1.7 | 5.2 | 0.00 | 0.20 | 0.08 | 76 | 1009.2 |
| 20260903170704 | 76 | 155 | 3.5 | 7.8 | 0.00 | 0.20 | 0.08 | 76 | 1009.2 |
| 20260903170204 | 76 | 156 | 2.6 | 5.2 | 0.00 | 0.20 | 0.08 | 76 | 1009.2 |
| 20260903164705 | 75 | 164 | 2.6 | 7.0 | 0.00 | 0.20 | 0.08 | 78 | 1009.4 |
| 20260903164204 | 75 | 154 | 1.7 | 7.8 | 0.00 | 0.20 | 0.08 | 80 | 1009.4 |
| 20260903162705 | 73 | 167 | 3.5 | 6.1 | 0.00 | 0.20 | 0.08 | 83 | 1009.6 |
| 20260903162204 | 72 | 164 | 4.3 | 8.7 | 0.00 | 0.20 | 0.08 | 84 | 1009.7 |
| 20260903160705 | 72 | 263 | 1.7 | 5.2 | 0.00 | 0.20 | 0.08 | 84 | 1009.8 |
| 20260903160204 | 72 | 167 | 1.7 | 7.0 | 0.00 | 0.20 | 0.08 | 84 | 1009.8 |
| 20260903154704 | 71 | 170 | 3.5 | 7.8 | 0.00 | 0.20 | 0.08 | 87 | 1010.0 |
| 20260903152204 | 69 | 171 | 1.7 | 6.1 | 0.00 | 0.20 | 0.08 | 90 | 1010.2 |
| 20260903150704 | 68 | 188 | 1.7 | 5.2 | 0.00 | 0.20 | 0.08 | 90 | 1010.3 |
| 20260903150204 | 68 | 171 | 1.7 | 7.0 | 0.00 | 0.20 | 0.08 | 90 | 1010.3 |
| 20260903144704 | 68 | 164 | 1.7 | 7.0 | 0.00 | 0.20 | 0.08 | 90 | 1010.3 |
| 20260903144204 | 68 | 197 | 1.7 | 6.1 | 0.00 | 0.20 | 0.08 | 91 | 1010.2 |
| 20260903142704 | 67 | 187 | 1.7 | 4.3 | 0.00 | 0.20 | 0.08 | 91 | 1010.3 |
| 20260903142204 | 67 | 215 | 2.6 | 7.0 | 0.00 | 0.20 | 0.08 | 91 | 1010.3 |
| 20260903140704 | 67 | 211 | 2.6 | 8.7 | 0.00 | 0.20 | 0.08 | 92 | 1010.2 |
| 20260903140204 | 67 | 171 | 1.7 | 7.8 | 0.00 | 0.20 | 0.08 | 92 | 1010.3 |
| 20260903134204 | 66 | 210 | 0.9 | 6.1 | 0.00 | 0.20 | 0.08 | 93 | 1010.2 |
| 20260903132704 | 66 | 175 | 1.7 | 6.1 | 0.00 | 0.20 | 0.08 | 93 | 1010.1 |
| 20260903132204 | 65 | 147 | 1.7 | 5.2 | 0.00 | 0.20 | 0.08 | 93 | 1010.1 |
| 20260903124204 | 64 | 167 | 1.7 | 6.1 | 0.00 | 0.20 | 0.08 | 95 | 1010.3 |
| 20260903122704 | 64 | 160 | 2.6 | 6.1 | 0.00 | 0.20 | 0.08 | 95 | 1010.3 |
| 20260903122204 | 64 | 296 | 0.9 | 4.3 | 0.00 | 0.20 | 0.08 | 95 | 1010.3 |
| 20260903120704 | 64 | 185 | 1.7 | 2.6 | 0.00 | 0.20 | 0.08 | 95 | 1010.3 |
| 20260903120204 | 64 | 171 | 0.9 | 7.0 | 0.00 | 0.20 | 0.08 | 95 | 1010.2 |
| 20260903114703 | 63 | 183 | 2.6 | 5.2 | 0.00 | 0.20 | 0.08 | 95 | 1010.3 |
| 20260903114204 | 63 | 177 | 1.7 | 6.1 | 0.00 | 0.20 | 0.08 | 95 | 1010.2 |
| 20260903112704 | 63 | 184 | 2.6 | 5.2 | 0.00 | 0.20 | 0.08 | 95 | 1010.2 |
| 20260903112204 | 63 | 173 | 2.6 | 7.0 | 0.00 | 0.20 | 0.08 | 95 | 1010.2 |
| 20260903110704 | 63 | 152 | 3.5 | 6.1 | 0.01 | 0.20 | 0.08 | 95 | 1010.1 |
| 20260903110204 | 62 | 154 | 2.6 | 6.1 | 0.01 | 0.20 | 0.08 | 95 | 1010.1 |